Lander, WY

4:28 PM MDT on March 25, 2017 (GMT -0600)
Hunt

Weather History for KLND - September, 2012

Change the Weather History Date:

Saturday, September 22, 2012

  Actual Average Record
Temperature  
Mean Temperature 64 °F 56 °F  
Max Temperature 79 °F 69 °F 90 °F (1958)
Min Temperature 48 °F 42 °F 7 °F (1895)
Degree Days  
Heating Degree Days 1 10  
Month to date heating degree days 50 125  
Since 1 July heating degree days 52 165  
Cooling Degree Days 0 0  
Month to date cooling degree days 36 26  
Year to date cooling degree days 779 471  
Growing Degree Days 14 (Base 50)    
Moisture  
Dew Point 28 °F    
Average Humidity 36    
Maximum Humidity 54    
Minimum Humidity 17    
Precipitation  
Precipitation 0.00 in 0.05 in 1.20 in (1910)
Month to date precipitation 0.14 0.69  
Year to date precipitation 4.82 9.57  
Snow  
Snow 0.00 in 0.20 in - ()
Month to date snowfall 0.0 1.4  
Since 1 July snowfall 0.0 1.4  
Since 1 September snowfall 0.0 1.4  
Snow Depth 0.00 in    
Sea Level Pressure  
Sea Level Pressure 30.05 in    
Wind  
Wind Speed 4 mph (WNW)    
Max Wind Speed 13 mph    
Max Gust Speed -    
Visibility 10 miles    
Events      
T = Trace of Precipitation, MM = Missing Value Source: NWS Daily Summary

Daily Weather History Graph

Daily Weather History Graph

Search for Another Location

Airport or City:

Trip Planner

Search our weather history database for the weather conditions in past years. The results will help you decide how hot, cold, wet, or windy it might be!

Date:

Astronomy

Sep. 22, 2012 Rise Set
Actual Time 7:02 AM MDT 7:11 PM MDT
Civil Twilight 6:34 AM MDT 7:39 PM MDT
Nautical Twilight 6:01 AM MDT 8:12 PM MDT
Astronomical Twilight 5:27 AM MDT 8:46 PM MDT
Moon 2:31 PM MDT (9/22) No Moon Set
Length of Visible Light 13h 04m
Length of Day
12h 08m
Waxing Crescent, 49% of the Moon is Illuminated
Sep 22
Waxing Crescent
Sep 22
First Quarter
Sep 29
Full
Oct 8
Last Quarter
Oct 15
New

Hourly Weather History & Observations

Time (MDT) Temp. Dew Point Humidity Pressure Visibility Wind Dir Wind Speed Gust Speed Precip Events Conditions
12:53 AM 53.1 °F 26.1 °F 35% 30.09 in 10.0 mi ESE 6.9 mph - N/A   Clear
1:53 AM 54.0 °F 27.0 °F 35% 30.09 in 10.0 mi WNW 3.5 mph - N/A   Clear
2:53 AM 53.1 °F 26.1 °F 35% 30.10 in 10.0 mi NW 6.9 mph - N/A   Clear
3:53 AM 54.0 °F 25.0 °F 33% 30.10 in 10.0 mi West 6.9 mph - N/A   Clear
4:53 AM 53.1 °F 26.1 °F 35% 30.11 in 10.0 mi WSW 6.9 mph - N/A   Clear
5:53 AM 48.9 °F 26.1 °F 41% 30.12 in 10.0 mi Calm Calm - N/A   Clear
6:53 AM 48.9 °F 26.1 °F 41% 30.14 in 10.0 mi Calm Calm - N/A   Clear
7:53 AM 51.1 °F 26.1 °F 38% 30.15 in 10.0 mi Calm Calm - N/A   Clear
8:53 AM 52.0 °F 36.0 °F 54% 30.16 in 10.0 mi Calm Calm - N/A   Clear
9:53 AM 60.1 °F 30.0 °F 32% 30.15 in 10.0 mi Calm Calm - N/A   Clear
10:53 AM 64.0 °F 28.9 °F 27% 30.12 in 10.0 mi NNW 3.5 mph - N/A   Clear
11:53 AM 68.0 °F 28.9 °F 23% 30.09 in 10.0 mi Calm Calm - N/A   Clear
12:53 PM 72.0 °F 30.0 °F 21% 30.06 in 10.0 mi Variable 3.5 mph - N/A   Clear
1:53 PM 73.9 °F 30.9 °F 21% 30.03 in 10.0 mi Calm Calm - N/A   Clear
2:53 PM 75.9 °F 30.9 °F 19% 30.00 in 10.0 mi Variable 3.5 mph - N/A   Clear
3:53 PM 78.1 °F 30.9 °F 18% 29.97 in 10.0 mi North 6.9 mph - N/A   Clear
4:53 PM 79.0 °F 32.0 °F 18% 29.95 in 10.0 mi West 5.8 mph - N/A   Clear
5:53 PM 77.0 °F 30.9 °F 19% 29.96 in 10.0 mi West 5.8 mph - N/A   Clear
6:53 PM 72.0 °F 32.0 °F 23% 29.97 in 10.0 mi West 5.8 mph - N/A   Clear
7:53 PM 68.0 °F 30.0 °F 24% 29.98 in 10.0 mi WSW 12.7 mph - N/A   Clear
8:53 PM 64.0 °F 27.0 °F 25% 30.01 in 10.0 mi Variable 3.5 mph - N/A   Clear
9:53 PM 63.0 °F 27.0 °F 26% 29.99 in 10.0 mi NNW 5.8 mph - N/A   Clear
10:53 PM 62.1 °F 23.0 °F 22% 29.98 in 10.0 mi West 4.6 mph - N/A   Clear
11:53 PM 64.9 °F 19.9 °F 18% 29.96 in 10.0 mi WSW 12.7 mph - N/A   Clear